Location: Kapuskasing
(49.3803°N, 82.4001°W)
Time: 18:55:13
(UTC-04:00)

Envisat - Visible Passes

Search period start: 13 March 2026 00:00
Search period end: 23 March 2026 00:00
Orbit: 761 x 763 km, 98.4° (Epoch: 13 March)

Date Brightness Start Highest point End Pass type
(mag) Time Alt. Az. Time Alt. Az. Time Alt. Az.
13 Mar 5.2 03:23:09 10° NE 03:25:24 21° NE 03:25:24 21° NE visible
13 Mar 3.8 05:01:49 10° N 05:05:32 39° NNW 05:05:32 39° NNW visible
14 Mar 5.8 02:46:41 10° NE 02:47:16 11° ENE 02:47:16 11° ENE visible
14 Mar 3.8 04:23:49 10° NNE 04:27:24 47° NNE 04:27:24 47° NNE visible
14 Mar 4.7 06:04:07 10° NNW 06:07:10 16° NW 06:07:32 16° WNW visible
15 Mar 4.6 03:46:10 10° NNE 03:49:16 32° NE 03:49:16 32° NE visible
15 Mar 4.0 05:25:26 10° N 05:29:25 29° NW 05:29:25 29° NW visible
16 Mar 5.3 03:09:01 10° NE 03:11:09 18° ENE 03:11:09 18° ENE visible
16 Mar 3.5 04:47:14 10° N 04:51:16 49° NNW 04:51:16 49° NNW visible
16 Mar 5.0 06:28:49 10° NW 06:30:08 11° NW 06:31:25 10° WNW visible
17 Mar 3.8 04:09:23 10° NNE 04:13:10 49° NE 04:13:10 49° NE visible
17 Mar 4.4 05:49:13 10° NNW 05:52:53 20° WNW 05:53:17 20° WNW visible
18 Mar 4.7 03:31:52 10° NNE 03:35:02 29° ENE 03:35:02 29° ENE visible
18 Mar 3.7 05:10:47 10° N 05:15:10 38° WNW 05:15:10 38° WNW visible
19 Mar 5.5 02:55:04 10° NE 02:56:54 15° ENE 02:56:54 15° ENE visible
19 Mar 3.2 04:32:43 10° NNE 04:37:02 63° NNW 04:37:02 63° NNW visible
19 Mar 4.8 06:13:21 10° NNW 06:15:54 14° NW 06:17:11 13° WNW visible
20 Mar 3.9 03:54:58 10° NNE 03:58:54 45° ENE 03:58:54 45° ENE visible
20 Mar 4.1 05:34:27 10° N 05:38:35 26° WNW 05:39:03 25° WNW visible
21 Mar 4.9 03:17:39 10° NE 03:20:47 24° ENE 03:20:47 24° ENE visible
21 Mar 3.3 04:56:10 10° N 05:00:55 49° WNW 05:00:55 49° WNW visible
22 Mar 5.7 02:41:29 10° ENE 02:42:40 12° ENE 02:42:40 12° ENE visible
22 Mar 3.1 04:18:13 10° NNE 04:22:48 71° NE 04:22:48 71° NE visible
22 Mar 4.6 05:58:20 10° NNW 06:01:38 18° NW 06:02:56 16° WNW visible
